{"data":{"norad_id":59600,"intl_designator":"2024-079C","name":"GSAT0227 (GALILEO 30)","alt_names":[],"object_type":"PAYLOAD","status":"ACTIVE","operator":null,"country":"ESA","launch_date":"2024-04-28","launch_site_code":"AFETR","launch_vehicle":null,"mission":null,"orbit_class":"UNKNOWN","rcs_meters":null,"size_class":null,"mass_kg":null,"dimensions":null,"purposes":["earth_obs","nav"],"wikipedia_slug":null,"has_3d_model":false,"image_url":null,"decayed_at":null,"tle_current":{"epoch":"2026-09-17T02:19:17.052096Z","epoch_age_seconds":308487,"freshness":"STALE","line1":"1 59600U 24079C   26260.09672514  .00000007  00000+0  00000+0 0  9997","line2":"2 59600  55.1567  98.5081 0004623 108.0703 252.0500  1.70473691 14935","mean_motion":1.70473691,"eccentricity":0.0004623,"inclination_deg":55.1567,"raan_deg":98.5081,"arg_perigee_deg":108.0703,"mean_anomaly_deg":252.05,"bstar":0,"rev_number":1493,"period_min":844.70512227016,"perigee_km":23208.534582011,"apogee_km":23235.903071009,"semimajor_km":29600.35582651,"source":"CELESTRAK","updated_at":"2026-09-20T09:00:46.498735Z"}}}